RYR2005 LEAL-LPMA

Flight info

Callsign RYR2005
Flight time N/A
Altitude 39000
Route RESTU3A RESTU DCT TOSGA DCT ROLAS DCT UNTOS DCT RIXUR DCT MGA DCT BRIKE DCT KORNO DCT BENTU DCT OGDOR DCT RAKUN RAKUN1P
Aircraft B38M/M-SDE1FGHILORVWXY/HB1

Departure

Time 2026-04-29 19:46
Airport Alicante-Elche Miguel Hernández Airport (LEAL)

Arrival

Time N/A
Airport Cristiano Ronaldo International Airport (LPMA)
Time Latitude Longitude Altitude Speed Heading
2026-04-29 19:03 38.28574 -0.55652 95 ft 0 kts 11°
2026-04-29 19:19 38.28568 -0.55653 97 ft 2 kts 10°
2026-04-29 19:19 38.28552 -0.55657 95 ft 2 kts
2026-04-29 19:19 38.28536 -0.55660 95 ft 2 kts
2026-04-29 19:20 38.28519 -0.55660 95 ft 2 kts 346°
2026-04-29 19:20 38.28507 -0.55648 95 ft 2 kts 284°
2026-04-29 19:20 38.28506 -0.55643 95 ft 0 kts 281°
2026-04-29 19:29 38.28574 -0.55652 95 ft 0 kts 11°
2026-04-29 19:38 38.28562 -0.55655 96 ft 2 kts 10°
2026-04-29 19:38 38.28549 -0.55658 98 ft 2 kts
2026-04-29 19:39 38.28536 -0.55660 97 ft 1 kts
2026-04-29 19:39 38.28524 -0.55662 97 ft 2 kts 358°
2026-04-29 19:39 38.28511 -0.55659 97 ft 2 kts 308°
2026-04-29 19:39 38.28507 -0.55649 98 ft 1 kts 281°
2026-04-29 19:40 38.28507 -0.55647 98 ft 0 kts 282°
2026-04-29 19:40 38.28508 -0.55652 96 ft 1 kts 283°
2026-04-29 19:40 38.28508 -0.55653 97 ft 0 kts 283°
2026-04-29 19:42 38.28512 -0.55677 98 ft 10 kts 281°
2026-04-29 19:42 38.28533 -0.55829 99 ft 25 kts 279°
2026-04-29 19:43 38.28546 -0.55988 99 ft 2 kts 247°
2026-04-29 19:43 38.28532 -0.56008 99 ft 6 kts 216°
2026-04-29 19:43 38.28451 -0.56036 105 ft 16 kts 208°
2026-04-29 19:43 38.28447 -0.56189 108 ft 23 kts 280°
2026-04-29 19:44 38.28478 -0.56421 115 ft 30 kts 279°
2026-04-29 19:44 38.28519 -0.56705 121 ft 36 kts 280°
2026-04-29 19:44 38.28561 -0.57004 136 ft 32 kts 280°
2026-04-29 19:44 38.28599 -0.57281 147 ft 19 kts 280°
2026-04-29 19:45 38.28575 -0.57425 152 ft 13 kts 199°
2026-04-29 19:45 38.28456 -0.57440 154 ft 20 kts 165°
2026-04-29 19:45 38.28437 -0.57394 151 ft 1 kts 96°
2026-04-29 19:45 38.28434 -0.57369 150 ft 6 kts 98°
2026-04-29 19:46 38.28419 -0.57257 145 ft 39 kts 99°
2026-04-29 19:46 38.28313 -0.56518 114 ft 129 kts 101°
2026-04-29 19:46 38.28105 -0.55116 359 ft 178 kts 101°
2026-04-29 19:46 38.27851 -0.53498 1311 ft 187 kts 102°
2026-04-29 19:47 38.27605 -0.51883 2532 ft 185 kts 99°
2026-04-29 19:47 38.27382 -0.50288 3495 ft 187 kts 99°
2026-04-29 19:47 38.27153 -0.48614 4220 ft 197 kts 99°
2026-04-29 19:47 38.26912 -0.46881 5035 ft 198 kts 99°
2026-04-29 19:48 38.26662 -0.45192 6016 ft 189 kts 101°
2026-04-29 19:48 38.26491 -0.44100 6562 ft 193 kts 102°
2026-04-29 19:48 38.26093 -0.41654 6908 ft 228 kts 102°
2026-04-29 19:48 38.25764 -0.39571 7104 ft 252 kts 102°
2026-04-29 19:49 38.25416 -0.37326 7540 ft 263 kts 102°
2026-04-29 19:49 38.25066 -0.35037 8171 ft 270 kts 102°
2026-04-29 19:49 38.24625 -0.32702 8998 ft 271 kts 116°
2026-04-29 19:49 38.23509 -0.30831 9841 ft 266 kts 146°
2026-04-29 19:50 38.21853 -0.29870 10591 ft 261 kts 174°
2026-04-29 19:50 38.20063 -0.29969 11343 ft 258 kts 199°
2026-04-29 19:50 38.18512 -0.31048 12122 ft 256 kts 224°
2026-04-29 19:50 38.17486 -0.32891 12916 ft 258 kts 248°
2026-04-29 19:51 38.17204 -0.35117 13706 ft 264 kts 272°
2026-04-29 19:51 38.17693 -0.37384 14399 ft 272 kts 293°
2026-04-29 19:51 38.18631 -0.39507 15068 ft 278 kts 297°
2026-04-29 19:51 38.19640 -0.41630 15730 ft 282 kts 298°
2026-04-29 19:52 38.20667 -0.43780 16418 ft 286 kts 298°
2026-04-29 19:52 38.21701 -0.45963 17113 ft 289 kts 298°
2026-04-29 19:52 38.22741 -0.48180 17805 ft 293 kts 298°
2026-04-29 19:52 38.23772 -0.50397 18444 ft 296 kts 298°
2026-04-29 19:53 38.24823 -0.52667 19076 ft 299 kts 298°
2026-04-29 19:53 38.25880 -0.54954 19752 ft 300 kts 297°
2026-04-29 19:53 38.26786 -0.57338 20373 ft 298 kts 282°
2026-04-29 19:53 38.27091 -0.59970 20593 ft 313 kts 273°
2026-04-29 19:54 38.27401 -0.65824 20869 ft 349 kts 272°
2026-04-29 19:54 38.27559 -0.68991 20999 ft 366 kts 272°
2026-04-29 19:54 38.27734 -0.72291 21176 ft 380 kts 272°
2026-04-29 19:55 38.27923 -0.75684 21629 ft 386 kts 272°
2026-04-29 19:55 38.28118 -0.79094 22260 ft 387 kts 272°
2026-04-29 19:55 38.28316 -0.82523 22904 ft 387 kts 272°
2026-04-29 19:55 38.28511 -0.85904 23496 ft 389 kts 272°
2026-04-29 19:56 38.28708 -0.89352 23949 ft 392 kts 272°
2026-04-29 19:56 38.28905 -0.92821 24389 ft 394 kts 272°
2026-04-29 19:56 38.28799 -0.96299 24807 ft 395 kts 257°
2026-04-29 19:56 38.27939 -0.99617 25266 ft 396 kts 244°
2026-04-29 19:57 38.26430 -1.02561 25695 ft 399 kts 232°
2026-04-29 19:57 38.25264 -1.04372 25986 ft 400 kts 231°
2026-04-29 19:57 38.22825 -1.07986 26505 ft 404 kts 230°
2026-04-29 19:57 38.20998 -1.10660 26881 ft 407 kts 231°
2026-04-29 19:58 38.19146 -1.13385 27283 ft 409 kts 231°
2026-04-29 19:58 38.17287 -1.16145 27678 ft 411 kts 231°
2026-04-29 19:58 38.15426 -1.18926 28054 ft 413 kts 231°
2026-04-29 19:58 38.13564 -1.21720 28421 ft 415 kts 231°
2026-04-29 19:59 38.11694 -1.24531 28797 ft 417 kts 231°
2026-04-29 19:59 38.09817 -1.27353 29162 ft 419 kts 231°
2026-04-29 19:59 38.07930 -1.30186 29494 ft 421 kts 231°
2026-04-29 19:59 38.06057 -1.32998 29827 ft 423 kts 231°
2026-04-29 20:00 38.04151 -1.35855 30161 ft 424 kts 231°
2026-04-29 20:00 38.02242 -1.38713 30575 ft 423 kts 231°
2026-04-29 20:00 38.00349 -1.41545 31055 ft 419 kts 231°
2026-04-29 20:00 37.98465 -1.44361 31516 ft 416 kts 231°
2026-04-29 20:01 37.96589 -1.47164 31914 ft 415 kts 231°
2026-04-29 20:01 37.94725 -1.49948 32264 ft 414 kts 231°
2026-04-29 20:01 37.92883 -1.52694 32640 ft 413 kts 231°
2026-04-29 20:01 37.91048 -1.55483 33079 ft 410 kts 235°
2026-04-29 20:02 37.89633 -1.58600 33479 ft 406 kts 245°
2026-04-29 20:02 37.88448 -1.61844 33898 ft 404 kts 246°
2026-04-29 20:02 37.87276 -1.65079 34225 ft 403 kts 246°
2026-04-29 20:02 37.86510 -1.67181 34399 ft 403 kts 245°
2026-04-29 20:03 37.84929 -1.71486 34834 ft 401 kts 245°
2026-04-29 20:03 37.83744 -1.74681 35165 ft 399 kts 245°
2026-04-29 20:03 37.82563 -1.77849 35452 ft 398 kts 245°
2026-04-29 20:03 37.81393 -1.80977 35718 ft 398 kts 245°
2026-04-29 20:04 37.80204 -1.84146 35993 ft 397 kts 245°
2026-04-29 20:04 37.79023 -1.87290 36301 ft 395 kts 245°
2026-04-29 20:04 37.77840 -1.90437 36582 ft 394 kts 245°
2026-04-29 20:04 37.76659 -1.93572 36817 ft 394 kts 245°
2026-04-29 20:05 37.75496 -1.96660 37060 ft 394 kts 245°
2026-04-29 20:05 37.74318 -1.99783 37300 ft 393 kts 245°
2026-04-29 20:05 37.73140 -2.02905 37525 ft 393 kts 245°
2026-04-29 20:05 37.71964 -2.06019 37769 ft 392 kts 245°
2026-04-29 20:06 37.70785 -2.09137 37998 ft 392 kts 245°
2026-04-29 20:06 37.69613 -2.12233 37975 ft 395 kts 245°
2026-04-29 20:06 37.67246 -2.18476 37990 ft 391 kts 245°
2026-04-29 20:07 37.64893 -2.24674 38005 ft 389 kts 245°
2026-04-29 20:07 37.62553 -2.30819 37993 ft 387 kts 245°
2026-04-29 20:08 37.60613 -2.35906 38007 ft 386 kts 244°
2026-04-29 20:08 37.57901 -2.43009 37999 ft 386 kts 244°
2026-04-29 20:09 37.55575 -2.49093 37997 ft 387 kts 244°
2026-04-29 20:09 37.53220 -2.55238 37995 ft 388 kts 244°
2026-04-29 20:10 37.50877 -2.61343 37995 ft 389 kts 244°
2026-04-29 20:10 37.48514 -2.67485 37997 ft 390 kts 244°
2026-04-29 20:11 37.46143 -2.73639 37993 ft 391 kts 244°
2026-04-29 20:11 37.43776 -2.79773 37993 ft 391 kts 244°
2026-04-29 20:12 37.41390 -2.85937 37991 ft 392 kts 244°
2026-04-29 20:12 37.38993 -2.92127 37989 ft 394 kts 244°
2026-04-29 20:13 37.36995 -2.97278 37995 ft 394 kts 244°
2026-04-29 20:13 37.34192 -3.04495 37995 ft 395 kts 244°
2026-04-29 20:14 37.31780 -3.10694 37990 ft 395 kts 244°
2026-04-29 20:14 37.29366 -3.16885 37998 ft 394 kts 244°
2026-04-29 20:15 37.26950 -3.23069 38001 ft 393 kts 244°
2026-04-29 20:15 37.24557 -3.29178 38006 ft 392 kts 244°
2026-04-29 20:16 37.22141 -3.35309 38006 ft 391 kts 244°
2026-04-29 20:16 37.19725 -3.41427 38009 ft 391 kts 244°
2026-04-29 20:17 37.17307 -3.47542 37982 ft 391 kts 244°
2026-04-29 20:17 37.15293 -3.52628 37995 ft 391 kts 244°
2026-04-29 20:18 37.12475 -3.59733 37986 ft 391 kts 244°